Preview of NWS' New Version of Forecast
This preview is not operational and should not be used for support decisions.

Regional Weather Roundup (RWR)

Issued by Philadelphia/Mt Holly (PHI)

                            
000
ASUS41 KPHI 260312
RWRPHI

REGIONAL WEATHER ROUNDUP
NATIONAL WEATHER SERVICE MOUNT HOLLY NJ
1100 PM EDT SAT MAY 25 2019

NOTE:  "FAIR" INDICATES FEW OR NO CLOUDS BELOW 12,000 FEET WITH NO
SIGNIFICANT WEATHER AND/OR OBSTRUCTIONS TO VISIBILITY.

 * = STATION DOES NOT REPORT PRECIPITATION (E.G. RAIN, SNOW, ETC.) 
        OR FOG.

NJZ015>026-260400-
SOUTHERN NEW JERSEY
  
CITY           SKY/WX    TMP DP  RH WIND       PRES   REMARKS
POMONA         CLOUDY    63  58  83 S10       30.09F                  
WILDWOOD*      CLOUDY    63  59  87 S15       30.07F                  
MILLVILLE      MOCLDY    64  59  83 S7        30.08S                  
WRIGHTSTOWN    FAIR      60  52  73 S7        30.06F                  
MOUNT HOLLY    MOCLDY    62  53  72 VRB5      30.08S                  
TRENTON        CLOUDY    62  52  69 S10       30.07S                  

$$
NJZ001>014-260400-
NORTHERN NEW JERSEY
  
CITY           SKY/WX    TMP DP  RH WIND       PRES   REMARKS
SUSSEX         CLOUDY    65  54  67 VRB6      30.06R                  
ANDOVER*         N/A     64  52  64 VRB6      30.06R                  
MORRISTOWN     MOCLDY    63  52  67 S8        30.07R                  
NEWARK         CLOUDY    63  52  67 S10       30.08R                  
TETERBORO      MOCLDY    62  53  72 S9G20     30.07R                  
CALDWELL       FAIR      64  51  62 VRB3      30.08R                  
SOMERVILLE     CLOUDY    63  51  65 S5        30.06R                  
ALLAIRE*       FAIR      61  53  75 S7        30.10R                  
TOMS RIVER*    MOCLDY    61  55  81 S9        30.09F                  

$$
PAZ043-044-047-054-055-060>062-066>071-260400-
EASTERN PENNSYLVANIA
  
CITY           SKY/WX    TMP DP  RH WIND       PRES   REMARKS
PHILADELPHIA   MOCLDY    65  55  70 S8        30.07F                  
NORTH PHILA    CLOUDY    66  52  60 VRB5      30.09S                  
BLUE BELL*     FAIR      63  54  73 S7        30.08S                  
DOYLESTOWN     FAIR      64  52  64 S6        30.06S                  
QUAKERTOWN*    PTCLDY    63  55  77 S5        30.07S                  
POTTSTOWN      FAIR      62  53  72 VRB5      30.09R                  
LANCASTER      FAIR      63  58  83 SE5       30.05S                  
COATESVILLE    FAIR      61  57  88 VRB5      30.08S                  
WEST CHESTER   FAIR      63  55  77 S3        30.08R                  
READING        FAIR      64  57  78 S7        30.05S                  
ALLENTOWN      CLOUDY    68  54  60 S7        30.06R                  
QN CITY/ALNTWN MOCLDY    64  54  68 S10       30.07F                  
MOUNT POCONO   CLOUDY    59  56  89 S8G16     30.06S                  
HAZLETON       MOCLDY    63  55  77 SE6       30.07F                  
LEHIGHTON      CLOUDY    64  55  72 SW3       30.06F                  
WILKES BARRE   CLOUDY    67  57  70 SW9       30.02R                  

$$
DEZALL-MDZ008-012-015-019-020-260400-
DELAWARE AND EASTERN MARYLAND
  
CITY           SKY/WX    TMP DP  RH WIND       PRES   REMARKS
WILMINGTON     FAIR      65  61  87 S9        30.07F                  
DOVER          CLOUDY    65  59  80 S9        30.06S                  
CHESWOLD         N/A     66  59  77 S6        30.06F                  
GEORGETOWN     MOCLDY    67  62  84 S10       30.07F                  
EASTON         FAIR      70  63  80 S10       30.09F                  
STEVENSVILLE   FAIR      70  66  88 S13       30.05F                  
PATUXENT       FAIR      71  67  87 SE7       30.07                   
OCEAN CITY     FAIR      67  63  87 SW12      30.10S                  
WALLOPS ISLAND FAIR      70  66  87 S14       30.10F                  
CAMBRIDGE      MOCLDY    68  64  88 S9        30.07F                  
SALISBURY      FAIR      68  64  87 S8        30.09S                  

$$
PAZ001-021-NYZ056-072-MDZ011-DCZ001-260400-
OTHER NEARBY LOCATIONS
  
CITY           SKY/WX    TMP DP  RH WIND       PRES   REMARKS
HARRISBURG     LGT RAIN  71  62  73 CALM      30.03S                  
STATE COLLEGE  CLOUDY    68  67  96 SW8       30.02F                  
WILLIAMSPORT   LGT RAIN  66  64  93 N3        30.00S FOG              
BINGHAMTON     RAIN      60  59  96 S7        29.99F FOG              
NEW YORK CITY  CLOUDY    61  53  75 CALM      30.11R                  
BALTIMORE      MOCLDY    70  64  81 CALM      30.04F                  
WASHINGTON DC  MOCLDY    71  64  78 S8        30.05F                  

$$